Reflectivity
25 -20 -20 -20 -20 -20 -20 -20 -20 -20 -20 -20 -20 -20 -20 -20 -20 -20 -20 -20 -20 -20 -20 -20 -20 -20 -20 -20 -20 -2 14 12 -17 10 -14 13 -13 -13 -18 -20 -10 -20 2
30 -5 -20 -20 -20 -20 -20 -20 -20 -20 -20 -20 -20 -20 -20 -20 -20 -20 -20 -20 -20 -20 -20 -20 -20 -20 -20 -20 -20 -20 -1 -18 -16 24 26 29 -12 7 7 -11 -4 -20 -18
-20 -20 -20 -20 -20 -20 -20 -20 -20 -20 -20 -20 -20 -20 -20 -20 -20 -20 -20 -20 -20 -20 -20 -20 -20 -20 -20 -20 -20 -20 -20 -17 -17 -20 -20 -13 -2 -11 -10 -9 -19 -3 -16
-20 -20 -20 -20 -20 -20 -20 -20 -20 -20 -20 -20 -20 -20 -20 -20 -20 -20 -20 -20 -20 -20 -20 -20 -20 -20 -20 -20 -20 -20 -5 -6 5 -20 -15 -17 6 0 -13 -19 -17 7 25
-20 -20 -20 -20 -20 11 -20 -17 -20 -20 -20 -20 -20 -20 -20 -20 -20 -20 -20 -20 -20 -20 -20 -20 -20 -20 -20 -20 -20 -20 -20 -20 -20 1 -16 0 3 -15 -12 -5 -2 -4 -14
-20 -20 -20 -12 32 20 -18 -20 -20 -20 -20 -20 -20 -20 -20 -20 -20 -20 -20 -20 -20 -20 -20 -20 -20 -20 -20 -20 -20 -20 -20 -20 -20 -16 -11 -2 -14 -4 6 7 4 8 -7
-7 -13 21 -20 -12 -4 4 -11 -20 -20 -20 -16 -20 -20 -20 -20 -20 -20 -20 -20 -20 -20 -20 -20 -20 -20 -20 -20 -20 -20 -20 -20 -20 -20 -20 -20 -18 -20 -20 -20 -17 5 -19
34 -17 -15 22 10 -7 5 11 -7 -20 -20 -15 -10 -17 -20 -20 -20 -20 -20 -20 -20 -20 -20 -20 -20 -20 -20 -20 -20 -20 -20 -20 -20 -20 -20 -20 -20 -20 -18 -19 -4 -16 -20
35 33 -11 -20 -20 -20 -18 -3 -0 -20 -20 -20 -20 -20 -20 -20 -20 -20 -20 -20 -20 -20 -20 -20 -20 -20 -20 -20 -20 -20 -20 -20 -20 -20 -20 -20 -20 -20 -20 -20 -20 -20 -20
33 32 -19 9 -11 -20 -18 -20 -20 -19 -20 8 -20 -20 -20 -2 -12 -20 -20 -20 -20 -20 -20 -20 -20 -20 -20 -20 -20 -20 -20 -20 -20 -20 -20 -20 -20 -20 -20 -20 -20 -20 1
-20 -20 -20 -20 -20 -20 -5 9 -19 5 -5 4 -20 -20 -20 -17 -20 -17 -12 -20 -20 -20 -20 -20 -20 -20 -20 -20 -20 -20 -20 -20 -20 -20 -20 -20 -20 -20 -20 -20 -20 -20 -20
-13 -13 -20 -20 27 3 -9 5 -6 23 10 11 -20 -20 -20 -20 -3 13 -11 16 3 -20 -20 2 -10 -20 -20 -20 -20 -20 -20 -20 -20 -20 -20 -20 -20 -20 -20 -20 -20 -20 -20
28 25 32 -18 22 -13 -20 -20 -7 -11 6 6 -20 -20 8 -20 -20 -20 15 5 -20 -20 -20 -20 4 -17 -20 -20 -20 -20 -20 -20 -20 -20 -20 -20 -20 -20 -20 -20 -20 -20 -20
-20 -12 -9 -20 -20 -17 -6 -3 -1 -9 0 6 -18 -19 4 -20 -20 -20 -20 -18 -20 -20 7 -1 -17 -20 -20 -20 -20 -20 -20 -20 -20 -20 -20 -20 -20 -20 -20 -20 -20 -20 -20
27 18 -20 -20 -17 -17 5 13 1 -8 9 -0 -7 -3 -12 7 -6 -8 -3 -20 10 7 -20 -15 -17 -20 -20 -20 -20 -20 -20 -20 -20 -20 -20 -20 -20 -20 -20 -20 -20 -20 -20
-20 -16 3 1 -19 -1 5 -3 5 14 8 9 12 -2 -14 -19 -16 14 -8 -4 -16 -20 -16 -20 -20 -20 -20 -20 -20 -20 -20 -20 -20 -20 -20 -20 -20 -20 -20 -20 -20 -20 -20
-20 -20 -18 -1 -20 -20 -20 -20 -20 -3 7 -5 5 11 12 -20 -20 -20 -19 -19 -20 -20 -20 -20 -20 -20 -20 -20 -20 -20 -20 -20 -20 -20 -20 -20 -20 -20 -20 -20 -20 -20 -20
-20 -20 -20 -20 -20 -20 -20 -20 -20 -20 -20 -20 -20 -20 -20 -20 -20 -20 -20 -20 -20 -20 -20 -20 -20 -20 -20 -20 -20 -20 -20 -20 -20 -20 -20 -20 -20 -20 -20 -20 -20 -20 -20
-20 -20 -20 -20 -20 -20 -20 -20 -20 -20 -20 -20 -20 -20 -20 -20 -20 -20 -20 -20 -20 -20 -20 -20 -20 -20 -20 -20 -20 -20 -20 -20 -20 -20 -20 -20 -20 -20 -20 -20 -20 -20 -20
-20 -20 -20 -20 -20 -20 -20 -20 -20 -20 -20 -20 -20 -20 -20 -20 -20 -20 -20 -20 -20 -20 -20 -20 -20 -20 -20 -20 -20 -20 -20 -20 -20 -20 -20 -20 -20 -20 -20 -20 -20 -20 -20
-20 -20 -20 -20 -20 -20 -20 -20 -20 -20 -20 -20 -20 -20 -20 -20 -20 -20 -20 -20 -20 -20 -20 -20 -20 -20 -20 -20 -20 -20 -20 -20 -20 -20 -20 -20 -20 -20 -20 -20 -20 -20 -20
-20 -20 -20 -20 -20 -20 -20 -20 -20 -20 -20 -20 -20 -20 -20 -20 -20 -20 -20 -20 -20 -20 -20 -20 -20 -20 -20 -20 -20 -20 -20 -20 -20 -20 -20 -20 -20 -20 -20 -20 -20 -20 -20
-20 -20 -20 -20 -20 -20 -20 -7 -15 -20 -20 -20 -20 -20 -17 -20 -20 -20 -20 -20 -20 -20 -20 -20 -20 -20 -20 -20 -20 -20 -20 -20 -20 -20 -20 -20 -20 -20 -20 -20 -20 -20 -20
-19 -14 -20 -20 -18 -17 -20 -18 -20 -20 -20 -20 -20 -17 -20 -20 -12 -20 -19 -17 -20 -20 -20 -20 -20 -20 -20 -20 -20 -20 -20 -20 -20 -20 -20 -20 -20 -20 -20 -20 -20 -20 -20
-20 -20 -16 -19 -19 -10 -20 -20 -20 -19 -20 -20 -20 -19 -20 -13 14 -6 -20 -20 -20 -20 -20 -20 -20 -20 -20 -20 -20 -20 -20 -20 -20 -20 -20 -20 -20 -20 -20 -20 -20 -20 -20
-20 11 5 -3 -12 -20 -20 -18 -15 -15 -3 -19 -20 -20 -11 8 -17 -20 -20 -20 -20 -20 -20 -20 -20 -20 -20 -20 -20 -20 -20 -20 -20 -20 -20 -20 -20 -20 -20 -20 -20 -20 -20
Wind_Speed
7 5 5 5 6 5 4 4 4 5 5 7 6 7 7 7 7 7 8 8 9 8 8 8 8 7 5 3 1 1 1 2 4 3 3 2 4 6 7 7 7 8 8
9 6 5 6 7 6 4 4 5 6 5 6 6 7 8 8 8 9 9 8 10 10 9 9 9 6 7 6 4 3 1 3 3 4 2 3 4 5 7 7 6 6 6
4 6 5 5 5 4 4 4 5 6 5 6 7 7 8 8 8 8 8 9 10 8 8 9 8 8 8 5 6 5 3 4 4 3 3 2 2 2 5 5 5 6 5
5 5 5 6 6 5 4 4 4 5 6 6 6 6 7 8 8 8 8 9 9 9 9 9 9 9 8 7 7 6 5 6 6 5 4 3 3 3 3 2 4 4 4
4 5 6 6 5 5 5 4 4 5 5 6 6 6 6 6 4 6 7 7 7 8 8 8 9 12 16 11 5 6 6 5 5 5 3 2 2 1 1 1 3 2 3
5 5 6 6 6 7 6 5 5 6 5 6 5 5 6 3 4 6 6 6 7 7 7 7 7 11 12 16 16 17 10 5 6 3 2 3 3 2 2 2 2 1 1
6 3 6 8 9 8 8 7 6 6 6 5 5 4 5 4 7 9 9 6 6 6 6 6 7 7 9 9 14 15 16 16 11 5 6 3 2 2 3 3 2 1 1
4 5 5 7 9 8 8 7 6 5 7 5 4 4 5 4 6 10 11 7 7 7 6 6 6 7 8 8 9 10 10 10 9 7 7 4 4 3 2 1 2 3 3
3 4 5 4 7 8 8 7 6 6 6 4 3 4 5 4 5 7 8 6 6 6 5 6 4 5 7 6 8 8 7 6 7 11 12 12 13 11 6 2 2 2 1
3 4 3 2 3 6 7 8 5 7 6 5 5 4 6 4 6 4 5 4 4 3 4 5 9 4 6 6 6 5 5 2 3 4 5 7 8 7 9 4 1 3 0
5 4 3 3 2 1 5 5 7 7 8 5 6 4 5 5 6 4 6 2 3 3 3 3 4 6 8 7 5 3 1 2 3 3 3 3 4 5 5 5 4 1 1
4 5 5 4 4 2 8 8 9 8 7 5 5 3 3 4 8 7 8 7 4 4 3 2 2 6 8 8 6 6 6 3 2 2 1 2 3 3 3 3 4 3 2
4 5 4 4 5 4 7 9 7 7 6 4 3 3 2 2 3 10 9 7 8 5 3 3 3 6 7 6 9 8 6 4 3 2 1 1 2 2 4 3 2 1 1
5 4 4 5 6 6 5 4 6 6 5 4 3 3 2 2 3 2 3 4 5 5 3 3 3 5 6 3 4 6 4 3 3 2 2 2 2 2 3 3 3 4 3
4 3 4 5 6 6 7 4 5 4 3 4 3 3 4 2 2 3 3 3 2 2 3 2 1 2 2 2 3 3 3 3 3 2 2 3 3 3 2 2 1 2 2
5 4 2 3 4 4 5 6 13 9 10 9 7 4 2 6 7 5 6 4 4 0 3 1 1 2 3 2 2 2 2 3 2 3 3 3 3 3 3 2 2 3 4
5 4 3 3 4 5 4 5 6 5 10 10 9 8 5 7 6 5 5 6 5 1 2 1 2 2 1 1 2 1 1 1 2 2 2 2 3 3 3 4 3 3 4
6 7 5 4 5 5 4 4 4 4 4 3 5 5 6 7 6 5 4 3 1 3 1 2 2 2 2 1 1 1 1 1 1 2 2 2 2 3 4 3 3 4 4
7 6 5 5 4 5 4 4 4 4 4 3 1 3 4 5 4 4 3 1 2 1 1 2 2 2 3 2 2 2 3 2 2 2 2 2 2 3 4 4 4 4 4
5 8 6 5 4 4 4 4 3 3 3 3 3 3 3 2 2 2 2 2 2 2 2 3 3 3 3 2 2 2 3 3 3 3 3 3 3 3 4 5 5 5 5
6 6 8 5 5 4 4 4 4 3 3 3 3 3 6 3 3 2 2 2 3 3 3 3 2 2 2 2 2 2 3 3 3 3 4 4 4 5 4 5 5 6 6
6 6 6 6 6 6 6 4 5 4 4 4 3 3 8 4 3 3 3 3 3 3 3 3 3 1 3 3 3 2 2 3 3 4 5 5 5 6 5 6 6 6 6
5 6 6 5 5 4 4 5 6 5 6 6 6 6 6 5 5 4 2 2 2 3 4 4 5 5 5 5 5 5 4 4 4 4 5 5 5 5 5 6 7 7 7
6 6 6 5 5 5 5 4 3 3 3 2 3 3 3 2 2 3 4 4 4 5 6 6 6 7 6 6 5 5 5 4 4 4 5 5 5 5 5 6 6 8 7
6 5 5 5 6 5 5 4 3 3 4 4 5 4 5 5 5 5 6 6 6 6 7 6 6 8 8 9 9 9 7 6 6 6 3 5 6 7 6 6 7 7 8
5 6 6 6 6 6 5 4 5 3 4 5 5 4 5 5 7 7 6 7 6 6 6 5 6 8 8 7 8 7 4 5 6 8 5 6 6 6 6 7 9 6 8
Wind_Direction
118 105 121 117 105 99 98 75 61 65 55 55 49 40 40 41 34 44 54 50 52 40 36 47 44 38 44 33 62 141 107 68 101 88 80 81 67 82 75 67 58 61 61
126 144 160 128 118 121 115 97 93 86 69 70 62 56 43 47 51 51 57 54 60 51 37 44 39 38 42 33 46 48 154 97 115 112 95 81 76 70 80 77 61 57 54
132 145 134 123 110 114 119 112 107 101 88 73 67 64 60 49 50 54 58 60 63 55 42 45 39 42 42 36 42 52 53 84 88 121 106 87 94 78 85 70 60 51 38
158 140 140 135 138 140 122 124 126 112 105 90 75 74 69 64 55 63 67 62 59 53 45 44 41 40 41 43 51 43 59 75 82 93 82 92 92 77 70 88 73 49 49
167 161 146 152 154 140 140 139 137 117 106 99 95 72 64 65 66 76 70 60 54 54 47 39 37 49 50 50 52 43 67 80 83 88 84 88 91 116 100 91 79 86 63
210 187 151 161 160 154 144 146 143 125 105 101 86 82 74 65 52 104 82 70 62 51 51 45 43 39 48 55 59 57 49 74 88 88 75 74 101 85 94 117 125 169 109
240 176 157 156 178 172 142 137 148 132 117 103 95 87 74 71 81 98 88 74 67 59 55 48 55 49 51 59 54 53 49 49 54 83 83 50 76 135 141 141 164 140 115
209 198 165 186 172 151 140 145 149 140 126 117 99 85 83 51 78 97 96 85 73 55 44 48 63 52 47 67 69 60 51 50 50 67 70 46 49 66 104 136 149 111 102
181 166 101 139 175 149 148 150 141 133 121 117 115 104 91 56 36 105 102 98 86 69 50 35 50 74 61 54 78 77 67 57 57 67 67 55 57 59 56 79 85 152 154
162 114 75 110 125 143 160 151 129 122 118 116 103 92 90 83 32 148 120 118 102 95 65 38 31 58 94 85 92 91 87 66 38 43 33 40 48 52 48 43 313 251 226
107 98 81 53 31 161 150 129 130 124 113 106 101 92 72 42 43 120 141 120 115 104 79 55 27 29 77 76 78 61 20 147 70 76 63 48 49 51 42 32 23 325 224
105 102 78 53 23 4 120 114 112 118 114 115 119 88 61 53 30 52 123 100 123 110 103 90 59 62 60 53 64 54 57 125 103 103 59 29 16 28 27 9 9 35 35
96 81 80 67 58 40 113 121 116 121 122 129 145 108 85 55 52 56 69 85 98 97 107 104 95 93 97 74 46 53 61 69 81 86 107 332 327 325 311 320 305 313 283
99 71 59 76 76 62 67 82 120 127 128 144 138 124 128 97 86 80 73 78 65 80 76 68 79 84 60 51 50 42 49 41 34 30 1 338 321 332 342 1 335 344 312
101 73 81 84 85 83 64 45 88 58 107 141 137 145 142 145 138 91 96 94 94 119 114 67 22 49 38 37 48 39 33 36 41 22 358 348 345 344 358 347 320 313 293
116 111 93 96 93 92 100 85 51 61 63 75 99 121 80 102 123 104 92 100 60 251 69 80 85 61 64 44 37 34 33 22 25 4 350 343 337 339 343 344 335 311 298
125 125 114 123 125 123 114 119 115 64 68 64 74 93 110 142 123 105 83 88 45 50 83 101 139 156 119 72 47 25 21 14 341 348 341 335 329 333 341 333 330 326 311
143 144 155 155 138 127 134 132 141 142 129 106 51 72 95 107 97 84 81 82 80 56 91 168 188 181 175 203 203 226 289 301 324 329 329 329 328 315 312 301 302 307 308
157 158 154 135 121 117 117 122 126 119 118 119 122 90 91 96 93 85 58 144 155 171 195 227 240 225 228 244 244 241 255 269 284 299 294 292 307 292 293 280 288 269 280
166 152 137 138 141 149 148 133 131 132 133 142 159 172 155 140 187 192 190 181 201 231 234 243 241 232 236 245 271 272 273 274 280 274 278 281 287 273 285 287 277 280 280
171 165 165 162 166 182 183 165 189 190 189 195 202 196 180 170 170 186 198 208 235 254 260 259 266 229 205 225 228 233 267 290 294 291 287 284 275 276 267 275 282 278 271
174 175 183 196 181 193 204 193 208 216 228 235 223 219 189 213 195 189 210 241 261 270 264 260 225 87 54 53 44 11 353 348 346 332 313 301 293 287 287 285 286 284 282
170 178 181 188 192 186 185 197 219 220 233 230 210 213 196 205 206 211 249 348 40 35 35 66 91 82 70 69 59 49 33 13 345 330 322 323 323 321 310 297 295 292 285
169 171 177 177 167 183 191 197 203 231 245 214 180 184 182 171 164 109 102 94 91 84 79 84 84 90 85 74 65 55 42 12 338 334 326 329 335 336 323 312 306 304 293
163 163 167 171 169 163 154 154 155 147 140 130 121 120 124 115 106 106 109 106 101 94 86 90 91 90 83 80 73 64 36 4 17 336 359 357 357 352 345 330 334 321 311
153 149 150 151 137 144 146 143 147 136 135 136 122 114 113 112 115 122 116 113 109 105 105 97 99 101 96 84 74 66 50 21 24 1 23 29 23 16 356 352 346 331 330